Location: ?????????
(55.6553°N, 38.9075°E)
Time: 08:06:46
(UTC+00:00)

Okean O Rocket - Pass Details

Date: 18 October 2019
Orbit: 622 x 645 km, 98.2° (Epoch: 13 November)

Event Time Altitude Azimuth Distance (km) Brightness Sun altitude
Rises 02:51:36 0° 17° (NNE) 2,959 5.3 -10.4°
Reaches altitude 10° 02:53:51 10° 22° (NNE) 2,041 4.5 -10.0°
Maximum altitude 02:58:15 57° 102° (ESE) 749 2.4 -9.4°
Drops below altitude 10° 03:02:34 10° 181° (S) 2,011 4.2 -8.8°
Sets 03:04:46 0° 186° (S) 2,911 5.0 -8.5°
